Location: Lancaster
(34.6980°N, 118.1360°W)
Time: 03:36:00
(UTC-07:00)

Vanguard 1 - All Passes

Search period start: 25 April 2018 00:00
Search period end: 05 May 2018 00:00
Orbit: 650 x 3833 km, 34.2° (Epoch: 24 April)

Date Brightness Start Highest point End Pass type
(mag) Time Alt. Az. Time Alt. Az. Time Alt. Az.
25 Apr - 00:59:00 10° W 01:03:33 87° S 01:10:04 10° E visible
25 Apr - 03:18:22 10° W 03:24:02 55° SSW 03:33:53 10° ESE visible
25 Apr - 05:39:00 10° WSW 05:45:47 25° SSW 05:56:14 10° SSE visible
25 Apr - 20:40:49 10° SSW 20:44:48 19° SSE 20:48:05 10° ESE visible
25 Apr - 23:00:03 10° WSW 23:04:34 64° SSE 23:09:14 10° E visible
26 Apr - 01:19:54 10° W 01:24:31 82° S 01:31:21 10° E visible
26 Apr - 03:39:21 10° W 03:45:05 44° SSW 03:54:51 10° SE visible
26 Apr - 06:01:10 10° WSW 06:07:06 18° SSW 06:15:21 10° S daylight
26 Apr - 21:00:53 10° SW 21:05:43 28° SSE 21:09:35 10° E visible
26 Apr - 23:20:58 10° WSW 23:25:28 78° S 23:30:19 10° E visible
27 Apr - 01:40:48 10° W 01:45:29 72° S 01:52:37 10° ESE visible
27 Apr - 04:00:30 10° W 04:06:11 34° SSW 04:15:28 10° SE visible
27 Apr - 06:24:56 10° SW 06:28:30 12° SSW 06:32:42 10° S daylight
27 Apr - 19:03:50 10° S 19:06:08 12° SSE 19:08:10 10° SE daylight
27 Apr - 21:21:24 10° SW 21:26:37 39° SSE 21:30:45 10° E visible
27 Apr - 23:41:57 10° W 23:46:24 86° S 23:51:25 10° E night (unlit)
28 Apr - 02:01:42 10° W 02:06:26 59° SSW 02:13:46 10° ESE visible
28 Apr - 04:21:54 10° WSW 04:27:20 25° SSW 04:35:38 10° SSE visible
28 Apr - 19:22:25 10° SSW 19:27:14 18° SSE 19:30:57 10° ESE daylight
28 Apr - 21:42:12 10° WSW 21:47:30 54° SSE 21:51:48 10° E visible
29 Apr - 00:02:56 10° W 00:07:21 86° S 00:12:32 10° E night (unlit)
29 Apr - 02:22:40 10° W 02:27:24 46° SSW 02:34:45 10° SE visible
29 Apr - 04:43:47 10° WSW 04:48:33 18° SSW 04:55:07 10° SSE visible
29 Apr - 19:42:14 10° SSW 19:48:18 26° SSE 19:52:34 10° ESE daylight
29 Apr - 22:03:10 10° WSW 22:08:25 69° SSE 22:12:47 10° E visible
30 Apr - 00:23:54 10° W 00:28:17 79° S 00:33:40 10° ESE night (unlit)
30 Apr - 02:43:44 10° W 02:48:24 35° SSW 02:55:29 10° SE visible
30 Apr - 05:07:00 10° SW 05:09:49 12° SSW 05:13:07 10° S visible
30 Apr - 17:44:54 10° S 17:48:05 12° SSE 17:50:48 10° SE daylight
30 Apr - 20:02:37 10° SW 20:09:18 35° SSE 20:13:50 10° E visible
30 Apr - 22:24:13 10° W 22:29:20 81° S 22:33:45 10° E visible
01 May - 00:44:51 10° W 00:49:12 66° SSW 00:54:45 10° ESE night (unlit)
01 May - 03:05:01 10° WSW 03:09:26 25° SSW 03:15:50 10° SSE visible
01 May - 18:03:03 10° SSW 18:09:19 18° SSE 18:13:53 10° ESE daylight
01 May - 20:23:23 10° SW 20:30:16 47° SSE 20:34:53 10° E visible
01 May - 22:45:19 10° W 22:50:16 86° S 22:54:44 10° E visible
02 May - 01:05:49 10° W 01:10:07 51° SSW 01:15:43 10° ESE night (unlit)
02 May - 03:26:42 10° WSW 03:30:31 18° SSW 03:35:36 10° SSE visible
02 May - 18:22:38 10° SSW 18:30:30 25° SSE 18:35:42 10° ESE daylight
02 May - 20:44:22 10° WSW 20:51:14 61° SSE 20:55:50 10° E visible
02 May - 23:06:24 10° W 23:11:13 85° S 23:15:44 10° E visible
03 May - 01:26:52 10° W 01:31:02 38° SSW 01:36:30 10° SE night (unlit)
03 May - 03:49:35 10° SW 03:51:39 11° SSW 03:54:00 10° S visible
03 May - 16:25:21 10° S 16:29:31 12° SSE 16:33:03 10° SE daylight
03 May - 18:42:52 10° SW 18:51:38 34° SSE 18:57:04 10° E daylight
03 May - 21:05:31 10° WSW 21:12:10 74° S 21:16:44 10° E visible
03 May - 23:27:28 10° W 23:32:08 76° S 23:36:43 10° ESE visible
04 May - 01:48:03 10° W 01:51:57 27° SSW 01:56:58 10° SE night (unlit)
04 May - 16:42:57 10° S 16:50:53 18° SSE 16:56:35 10° ESE daylight
04 May - 19:03:31 10° SW 19:12:42 45° SSE 19:18:11 10° E daylight
04 May - 21:26:45 10° W 21:33:08 83° S 21:37:39 10° E visible
04 May - 23:48:31 10° W 23:53:02 61° SSW 23:57:39 10° ESE visible
